{"data":{"norad_id":48368,"intl_designator":"2021-038R","name":"STARLINK-2623","alt_names":[],"object_type":"PAYLOAD","status":"ACTIVE","operator":null,"country":"US","launch_date":"2021-05-04","launch_site_code":"AFETR","launch_vehicle":null,"mission":null,"orbit_class":"UNKNOWN","rcs_meters":null,"size_class":null,"mass_kg":null,"dimensions":null,"purposes":["comms"],"wikipedia_slug":null,"has_3d_model":false,"image_url":null,"decayed_at":null,"tle_current":{"epoch":"2026-09-19T06:48:34.278048Z","epoch_age_seconds":138809,"freshness":"FRESH","line1":"1 48368U 21038R   26262.28373007 -.00000825  00000+0 -14833-4 0  9990","line2":"2 48368  53.1599 167.4200 0001284  78.7897 281.3248 15.31698884296888","mean_motion":15.31698884,"eccentricity":0.0001284,"inclination_deg":53.1599,"raan_deg":167.42,"arg_perigee_deg":78.7897,"mean_anomaly_deg":281.3248,"bstar":-1.4833e-5,"rev_number":29688,"period_min":94.013256459355,"perigee_km":469.86392573226,"apogee_km":471.62271819894,"semimajor_km":6848.8803219656,"source":"CELESTRAK","updated_at":"2026-09-20T09:00:38.941794Z"}}}